STARLINK-3864 (52468 NORAD) Tracking and Keplerian Element Data

This shows tracking and keplerian element data for the satellite.

Feedback or suggestion? Click here.




ElementValue
Catalog52468
NameSTARLINK-3864
Epoch Orbit130
Epoch Day167.08334491
Epoch Year2022
RAAN65.0003
Inclination53.2168
Eccentricity0.00016
Argument of Perigee38.6356
Mean Anonmoly100.8513
Mean Motion15.73220761
Decay Rate0.0005708
L11 52468U 22049T 22167.08334491 .00057080 00000+0 40799-3 0 9993
L22 52468 53.2168 65.0003 0001600 38.6356 100.8513 15.73220761 1300

Live tracking and technical data element details for STARLINK-3864 (NORAD 52468). STARLINK-3864 can be tracked NOW for your location showing map with azimuth and elevation plus other details from your city location.

Track the satellite on the map from your city or location and see movement details for azimuth, elevation, latitude, longitude, range, height, and movement on the map or in text.







IsCatalogInMostPopularTable: catalog: 52468, numindb: 1
Update: records affected: 1



GetName: 52468 STARLINK-3864

Hit Count: updated at: Mon, 27 Jun 2022 06:30:56 GMT